Temperature
11 11 11 11 11 10 10 10 10 10 10 11 12 12 12 12 12 12 13 13 13 13 13 13 14 14 14 14 14 14 14 15 15 15 15 15 15 16
11 11 11 11 11 10 10 10 10 10 10 10 11 11 11 11 11 12 12 12 12 12 13 13 13 13 13 14 14 14 14 14 15 15 15 15 15 15
11 11 11 11 11 10 10 10 10 10 10 10 10 11 11 11 11 11 11 12 12 12 12 12 13 13 13 13 13 13 14 14 14 14 15 15 15 15
12 11 11 11 11 11 10 10 10 10 10 10 10 10 10 11 11 11 11 11 11 12 12 12 12 12 13 13 13 13 13 14 14 14 14 15 15 15
12 12 11 11 11 11 10 10 10 10 10 10 10 10 10 10 10 10 11 11 11 11 11 11 12 12 12 12 12 13 13 13 14 14 14 14 15 15
12 12 12 11 11 11 10 10 10 10 10 10 10 10 10 10 10 10 10 10 10 11 11 11 11 11 11 12 12 12 13 13 13 13 14 14 14 14
12 12 12 11 11 11 11 10 10 10 10 10 10 9 10 10 10 9 9 10 10 10 10 11 11 11 11 11 12 12 12 12 13 13 13 14 14 14
13 12 12 12 11 11 11 10 10 10 10 10 9 9 10 10 9 9 9 9 9 10 10 10 10 11 11 11 11 12 12 12 12 13 13 13 13 14
13 13 12 12 11 11 11 11 10 10 10 9 9 9 9 9 9 9 9 9 9 9 9 9 10 10 11 11 11 11 12 12 12 12 13 13 13 13
13 13 12 12 12 11 11 11 11 10 10 9 9 9 9 9 9 9 8 8 9 9 9 9 9 10 10 11 11 11 11 12 12 12 12 13 13 13
13 13 12 12 12 11 11 11 11 11 10 10 9 9 9 9 9 8 8 8 8 9 9 8 9 9 10 10 11 11 11 11 12 12 12 12 13 13
13 13 13 12 12 11 11 11 11 11 10 10 9 9 9 9 9 8 8 8 8 8 9 8 8 8 8 9 10 10 10 11 11 12 12 12 12 12
13 13 13 13 12 12 11 11 11 10 10 10 9 9 9 9 9 9 8 8 8 8 8 8 8 8 7 8 9 9 10 10 10 11 11 11 12 12
12 13 13 12 12 12 11 11 11 10 10 9 9 9 9 9 9 9 8 8 8 8 8 8 7 8 7 7 8 9 9 9 10 10 11 11 11 11
12 12 12 12 12 11 11 11 10 10 10 9 9 9 9 9 9 9 8 8 8 8 8 8 8 8 7 7 8 8 9 9 9 10 10 10 11 11
11 11 11 11 11 11 11 11 10 10 10 9 9 9 9 9 9 9 8 8 8 8 8 8 8 8 7 7 7 8 8 8 9 9 10 10 10 11
10 11 11 11 11 11 11 11 10 10 10 9 9 9 9 9 9 8 8 8 8 8 8 8 8 8 7 7 7 7 8 8 9 9 9 10 10 10
10 10 10 10 11 11 11 10 10 10 10 9 9 9 9 9 9 8 8 8 8 8 8 8 8 7 7 7 8 8 8 8 9 9 9 9 10 11
9 10 10 10 10 10 10 10 10 10 10 9 9 9 9 9 8 8 8 8 8 8 8 8 7 7 7 6 7 8 8 8 9 9 9 9 10 11
9 9 9 10 10 10 10 10 10 9 9 9 9 9 8 8 8 8 8 8 8 7 7 7 7 7 7 7 7 8 8 8 8 8 9 9 9 10
8 8 9 9 9 9 9 9 9 9 9 9 8 8 8 8 8 8 8 8 7 7 7 7 8 7 7 7 7 7 8 8 8 8 8 8 9 9
7 8 8 8 8 8 8 8 9 9 8 8 8 8 8 8 8 8 8 7 7 7 7 7 7 7 7 7 7 7 8 8 8 8 8 8 8 9
7 7 7 8 8 8 8 8 8 8 8 8 8 8 8 8 8 7 7 7 7 7 7 7 7 7 7 7 7 7 8 8 8 8 8 8 8 9
Wind_Speed
4 4 3 3 3 4 3 3 2 2 3 3 2 3 5 7 9 8 8 9 9 9 8 8 9 9 10 11 12 15 18 20 23 25 27 29 30 31
3 4 4 3 3 4 4 4 4 4 4 3 4 4 6 8 8 7 8 10 10 10 10 10 11 11 12 12 13 14 17 18 20 23 25 26 28 30
5 5 6 5 4 4 4 4 5 5 6 6 4 4 4 6 7 8 8 8 8 10 11 11 12 13 13 14 15 15 16 17 19 21 23 25 26 28
7 6 7 6 6 5 5 6 6 7 6 8 5 4 5 5 6 6 7 7 7 10 12 12 12 12 13 14 15 16 16 17 18 20 21 23 25 27
8 8 9 7 8 6 7 7 6 6 7 7 7 4 4 4 4 5 5 5 7 9 10 10 11 11 12 12 13 15 17 18 19 20 21 22 23 25
9 9 9 9 10 9 8 8 7 7 7 7 7 6 6 5 4 5 5 4 5 6 8 9 8 9 10 11 13 14 16 17 18 20 21 22 23 24
10 10 10 12 13 11 8 8 8 7 7 7 8 6 6 5 5 4 5 6 5 4 4 5 5 6 8 10 12 14 15 17 18 20 21 21 22 23
11 11 10 12 14 15 15 14 12 10 10 8 8 9 10 8 7 6 5 4 5 3 3 4 4 7 8 10 13 15 16 17 18 19 21 21 22 22
12 11 10 11 12 11 12 14 14 16 15 12 12 12 11 9 7 7 7 7 7 5 3 7 6 8 9 12 17 18 18 18 19 19 20 21 21 22
13 13 13 13 12 12 12 12 12 12 13 13 13 13 13 11 10 9 8 7 8 7 6 6 7 8 9 11 16 19 20 19 19 19 19 19 20 21
14 14 14 14 15 15 13 13 13 12 13 16 17 16 16 15 10 6 6 6 8 7 6 6 6 7 7 9 12 15 17 17 17 18 18 18 18 17
12 13 16 17 17 16 14 13 14 14 11 9 10 12 12 12 13 11 10 10 9 7 6 6 5 4 5 4 4 5 7 10 13 15 16 15 14 11
12 12 12 17 20 19 17 14 17 14 10 9 9 9 8 8 9 10 11 11 11 11 6 6 5 5 6 6 5 6 6 6 6 7 12 15 15 13
14 13 13 17 19 19 16 16 18 14 9 8 8 9 10 10 9 10 11 13 14 14 11 9 8 8 8 9 8 6 6 6 6 7 7 10 13 17
14 17 17 17 16 15 17 18 14 11 10 10 11 12 11 11 9 7 8 10 12 14 15 15 13 11 10 10 10 9 8 7 8 8 8 7 7 7
14 15 18 17 15 13 12 12 11 11 11 12 12 11 10 8 9 8 7 7 7 9 12 15 14 14 12 13 12 11 10 7 6 7 7 7 7 8
9 8 8 9 10 10 10 10 10 10 11 11 11 11 10 9 9 8 7 7 7 8 9 7 9 11 13 11 10 12 11 11 11 10 9 10 10 9
8 9 11 11 12 12 12 11 10 11 11 11 11 11 10 10 9 8 8 8 9 10 10 8 6 5 6 9 14 14 12 12 11 10 9 9 11 10
9 11 12 12 12 11 11 11 11 11 10 10 11 11 10 10 9 9 9 9 10 10 10 9 8 8 9 11 9 15 13 11 10 10 10 9 10 10
9 11 12 11 11 11 11 11 11 10 9 10 10 10 10 10 10 10 9 10 10 10 10 9 9 10 12 12 10 7 14 13 10 10 10 9 9 10
11 11 11 11 10 10 10 10 10 10 9 9 10 10 10 10 10 10 10 12 11 10 11 11 11 12 10 7 8 9 9 13 13 10 8 8 8 7
11 11 11 11 10 9 9 9 9 10 10 10 10 9 9 9 11 12 11 10 10 11 12 11 9 8 8 10 12 13 11 8 9 12 11 8 6 6
11 10 10 10 9 9 9 10 11 9 9 9 9 9 9 9 9 10 10 10 10 11 11 10 8 8 9 10 11 11 13 10 7 7 7 6 8 10
Wind_Direction
226 219 220 227 215 216 210 200 206 269 287 273 281 296 319 320 325 327 322 322 321 313 298 288 283 278 276 271 263 254 248 243 241 238 236 233 230 228
227 227 233 234 225 216 214 214 214 224 255 259 256 278 297 303 310 315 310 310 308 304 297 289 283 278 276 269 265 259 254 248 244 241 238 235 232 230
238 232 241 235 233 228 216 215 218 216 248 270 255 268 277 285 299 305 302 299 299 299 295 290 285 280 275 271 265 260 256 251 246 243 240 237 234 232
244 239 246 242 236 235 226 226 227 221 235 268 273 266 261 272 280 289 294 295 292 294 293 289 284 280 277 273 268 262 258 253 248 245 242 240 237 235
241 240 246 241 244 240 233 236 238 235 228 249 269 262 265 270 279 282 283 286 292 291 291 288 285 281 278 275 272 266 259 254 251 248 245 243 241 238
242 241 243 239 241 243 241 239 239 240 237 245 262 266 264 265 259 270 282 278 287 293 288 285 285 289 284 280 275 269 262 257 253 249 247 245 244 242
249 245 244 242 240 238 238 239 235 240 243 248 259 265 265 261 257 253 268 281 281 266 276 276 282 287 290 287 280 272 267 261 257 253 250 247 245 244
250 251 249 251 249 245 242 239 230 235 243 247 256 258 262 260 257 251 256 268 279 247 245 275 276 280 280 277 274 273 270 265 259 254 251 248 247 245
244 249 253 250 241 247 250 250 245 237 232 238 250 254 258 254 249 253 244 242 252 254 248 276 269 273 274 273 270 270 269 265 261 257 252 248 246 245
241 242 246 251 246 239 247 252 252 249 241 239 242 249 250 250 242 249 257 257 258 256 232 260 268 270 276 274 270 266 265 263 261 258 255 250 247 245
244 241 240 247 245 233 238 248 256 259 250 240 237 242 245 244 237 239 240 244 263 263 215 230 263 272 275 273 270 265 262 262 262 258 253 249 246 244
248 243 236 237 241 230 231 238 248 255 254 250 242 244 247 249 236 229 236 245 257 265 231 214 246 257 278 262 268 275 274 268 262 257 252 247 241 236
249 249 243 230 233 232 226 231 238 242 246 245 249 253 253 250 246 235 229 233 243 249 235 204 239 241 252 274 280 278 276 276 272 261 251 244 237 227
248 250 246 232 228 229 227 230 233 234 241 242 246 252 253 253 250 244 236 234 238 247 248 227 241 249 256 266 271 272 267 264 263 265 262 248 240 234
249 247 244 238 232 234 233 228 227 228 227 235 244 250 251 252 252 249 246 241 244 247 248 238 238 246 246 254 261 266 273 270 257 255 256 250 244 233
254 252 247 245 239 237 237 233 228 224 223 234 243 249 250 247 246 243 248 244 248 255 244 238 236 236 243 246 250 258 259 260 259 249 251 254 247 239
265 259 249 241 238 235 234 234 229 224 227 233 238 244 245 244 246 239 237 235 237 252 258 244 231 232 237 244 248 251 254 255 255 256 255 259 255 246
254 252 248 241 238 236 233 232 229 227 227 228 230 234 238 240 244 239 230 232 241 249 253 254 241 231 239 243 229 244 249 251 253 249 244 252 259 253
241 246 245 241 237 234 232 232 233 229 222 221 226 229 231 234 238 239 235 234 241 246 249 246 236 232 248 259 242 216 232 244 247 247 242 240 252 256
244 247 246 243 240 237 234 233 235 232 223 222 225 227 226 228 233 236 236 237 241 246 249 244 236 231 237 251 259 245 218 230 242 246 247 245 248 255
257 253 251 247 244 241 238 235 234 231 226 221 224 225 224 224 230 235 237 237 239 245 249 250 246 235 241 248 253 251 242 223 228 237 242 241 245 246
265 258 253 248 243 242 240 236 233 231 227 224 226 226 224 223 229 233 235 237 238 242 249 254 254 239 227 233 244 252 253 241 229 231 237 242 239 237
273 265 256 249 242 238 235 232 231 229 226 226 228 228 225 225 229 234 237 239 242 246 249 253 249 236 234 235 242 247 250 244 231 225 229 233 249 263
Height
1544 1544 1544 1544 1543 1543 1543 1543 1543 1541 1539 1539 1540 1540 1540 1539 1539 1539 1539 1539 1539 1540 1540 1541 1541 1542 1543 1544 1545 1546 1548 1551 1553 1556 1559 1562 1565 1568
1542 1542 1541 1541 1541 1541 1540 1540 1539 1539 1537 1536 1536 1536 1536 1535 1535 1534 1534 1534 1534 1535 1535 1536 1536 1536 1537 1538 1538 1540 1541 1543 1546 1548 1551 1554 1556 1560
1539 1538 1538 1538 1538 1538 1537 1537 1536 1535 1533 1532 1532 1532 1531 1531 1530 1530 1529 1529 1529 1529 1530 1530 1530 1530 1531 1532 1532 1533 1534 1536 1538 1540 1542 1545 1548 1551
1535 1535 1534 1534 1534 1534 1533 1533 1532 1531 1530 1528 1527 1527 1527 1526 1525 1525 1524 1524 1524 1524 1524 1524 1524 1524 1524 1525 1525 1526 1527 1529 1530 1532 1534 1537 1539 1542
1531 1531 1530 1530 1529 1529 1529 1528 1527 1527 1525 1524 1522 1522 1521 1521 1520 1520 1519 1518 1518 1518 1518 1518 1518 1518 1518 1518 1518 1519 1520 1521 1523 1524 1526 1528 1530 1533
1527 1526 1526 1525 1525 1524 1524 1523 1522 1521 1520 1519 1517 1516 1516 1516 1515 1514 1513 1513 1512 1512 1512 1512 1512 1511 1512 1512 1512 1512 1513 1514 1515 1516 1517 1519 1521 1523
1522 1521 1520 1520 1519 1519 1518 1517 1517 1515 1515 1513 1512 1511 1510 1510 1510 1509 1508 1507 1506 1506 1506 1506 1505 1505 1505 1505 1505 1505 1506 1506 1507 1508 1509 1510 1512 1514
1516 1515 1515 1514 1513 1513 1512 1511 1510 1509 1508 1508 1506 1505 1505 1505 1505 1504 1502 1501 1500 1501 1499 1499 1499 1498 1498 1498 1498 1498 1498 1499 1499 1500 1501 1502 1503 1505
1509 1509 1508 1507 1507 1506 1505 1504 1504 1503 1502 1501 1500 1499 1499 1499 1499 1498 1497 1495 1494 1494 1493 1491 1492 1491 1491 1491 1491 1491 1491 1491 1492 1492 1493 1493 1494 1496
1502 1501 1501 1500 1500 1499 1498 1497 1496 1496 1495 1495 1493 1493 1493 1493 1492 1492 1490 1489 1487 1488 1487 1484 1484 1484 1484 1483 1483 1483 1483 1483 1484 1484 1485 1486 1486 1487
1494 1494 1493 1492 1492 1492 1491 1489 1488 1488 1489 1488 1487 1487 1486 1486 1486 1485 1483 1482 1480 1480 1480 1479 1477 1476 1475 1474 1475 1475 1475 1475 1476 1476 1477 1477 1478 1479
1485 1485 1484 1484 1484 1484 1483 1482 1480 1481 1481 1481 1480 1480 1479 1479 1479 1478 1477 1476 1474 1472 1472 1472 1471 1470 1467 1467 1467 1468 1467 1467 1468 1468 1469 1469 1470 1471
1476 1475 1475 1475 1475 1475 1474 1473 1473 1474 1474 1473 1472 1472 1471 1471 1471 1470 1469 1468 1467 1465 1466 1466 1464 1464 1463 1461 1460 1461 1461 1461 1461 1461 1461 1462 1463 1463
1465 1465 1465 1466 1465 1466 1465 1464 1465 1466 1465 1464 1463 1463 1463 1462 1462 1462 1461 1460 1459 1458 1459 1458 1457 1457 1456 1455 1453 1453 1454 1454 1454 1454 1455 1455 1455 1456
1455 1455 1455 1455 1455 1455 1455 1456 1456 1456 1455 1454 1454 1453 1454 1454 1454 1453 1453 1452 1451 1450 1450 1450 1450 1449 1449 1448 1447 1447 1447 1447 1448 1448 1448 1448 1449 1449
1445 1444 1444 1444 1444 1444 1444 1445 1445 1445 1445 1445 1444 1445 1445 1445 1445 1444 1444 1444 1443 1442 1443 1443 1442 1442 1441 1440 1440 1439 1440 1440 1440 1441 1441 1441 1441 1442
1434 1432 1432 1432 1432 1432 1433 1434 1435 1435 1435 1435 1435 1435 1435 1435 1435 1436 1435 1435 1434 1434 1434 1435 1435 1434 1433 1433 1432 1432 1432 1432 1433 1434 1434 1433 1433 1434
1423 1421 1420 1420 1420 1421 1421 1422 1423 1424 1425 1425 1426 1426 1426 1426 1427 1427 1427 1427 1426 1426 1426 1427 1427 1426 1425 1424 1425 1424 1424 1425 1426 1426 1426 1425 1425 1427
1412 1410 1410 1409 1409 1410 1411 1411 1412 1413 1414 1415 1416 1416 1417 1417 1418 1418 1418 1418 1418 1418 1418 1419 1419 1418 1417 1416 1416 1417 1417 1417 1418 1418 1418 1418 1418 1419
1401 1400 1399 1398 1399 1399 1400 1401 1402 1403 1404 1405 1406 1407 1408 1409 1409 1410 1410 1410 1410 1410 1409 1410 1410 1409 1409 1409 1409 1409 1410 1410 1410 1410 1411 1411 1411 1412
1391 1389 1388 1388 1389 1389 1390 1391 1392 1393 1394 1395 1396 1398 1399 1400 1400 1401 1401 1402 1402 1401 1401 1401 1401 1402 1402 1402 1401 1400 1401 1403 1403 1403 1404 1404 1404 1404
1381 1379 1379 1379 1379 1379 1380 1381 1383 1384 1385 1386 1387 1389 1390 1391 1392 1393 1393 1393 1393 1393 1392 1393 1394 1394 1394 1393 1392 1393 1394 1395 1396 1396 1397 1398 1398 1398
1373 1370 1370 1369 1370 1370 1372 1373 1374 1375 1377 1378 1379 1380 1382 1383 1384 1384 1385 1385 1385 1385 1385 1385 1385 1385 1385 1385 1385 1386 1386 1387 1388 1389 1389 1390 1391 1392